Temperature
29 30 31 31 31 31 30 30 30 30 29 29 29 29 28 27 26 26 25 24 23 23 22 21 20 20 19 19 19 19 19 18 18 18 18 18 18 17 17 17 17 17 17 17
30 30 31 31 30 30 30 30 30 29 29 29 29 29 29 28 27 26 25 24 24 23 22 21 20 20 19 19 19 19 18 18 18 18 18 18 18 17 17 17 17 17 17 17
30 31 31 30 30 30 30 30 30 29 29 29 29 29 29 28 27 26 25 25 24 23 22 21 20 20 19 19 19 19 18 18 18 18 18 17 17 17 17 17 17 17 17 17
31 31 30 30 30 30 30 31 30 29 29 30 29 29 29 29 28 27 26 25 24 23 22 21 21 20 20 19 19 19 19 18 18 18 17 17 17 17 17 17 17 17 17 17
31 30 30 30 30 30 30 30 30 29 29 30 30 29 30 29 28 28 27 26 25 23 23 22 21 20 20 19 19 19 18 18 18 18 17 17 17 17 17 17 16 16 16 16
31 31 31 30 30 30 30 30 29 30 30 29 29 29 29 30 29 28 27 26 24 23 22 21 21 20 19 19 19 19 18 18 18 18 17 17 17 17 17 16 17 17 16 16
30 30 30 30 30 29 30 30 29 29 29 29 29 29 29 29 28 28 27 26 25 23 23 22 20 20 19 19 19 19 18 18 18 18 17 17 17 17 17 17 17 16 16 17
30 30 30 30 30 30 30 30 29 29 29 30 29 29 29 28 27 26 26 25 24 23 23 22 20 20 19 19 19 18 18 18 18 17 17 17 17 17 17 17 16 16 16 16
30 30 30 30 30 30 30 30 31 30 30 30 30 29 29 28 27 26 25 25 24 23 22 22 21 20 19 19 19 18 18 18 17 17 17 17 17 17 16 16 16 16 16 16
30 29 30 30 30 29 30 30 30 30 28 28 29 29 29 27 27 26 25 25 24 23 22 21 21 20 19 19 18 18 18 18 18 17 17 17 17 17 16 16 16 16 16 16
30 29 29 29 29 29 29 29 29 29 29 29 29 29 28 27 27 26 26 24 23 23 22 21 21 20 19 19 18 18 17 17 17 17 17 17 17 16 16 16 16 16 16 16
29 29 29 29 29 29 29 29 29 28 28 28 29 28 28 27 27 26 25 24 23 22 22 21 20 20 19 19 18 18 17 17 17 17 17 17 17 16 16 16 16 16 16 16
28 28 28 28 28 28 28 28 29 29 29 28 28 28 27 26 26 25 24 23 22 22 21 21 20 19 19 18 18 18 17 17 17 17 17 16 16 16 16 16 16 16 16 16
27 28 28 28 28 29 28 28 28 28 29 28 28 28 27 26 26 25 24 23 22 21 21 20 19 19 18 18 18 17 17 17 17 16 16 16 16 16 16 16 15 15 15 15
28 27 28 28 28 28 28 28 28 27 28 28 28 28 27 27 26 25 23 22 22 21 20 19 19 18 18 17 17 17 17 17 16 16 16 16 15 15 15 15 15 15 15 15
27 27 27 27 28 28 27 27 27 27 27 27 27 27 27 26 25 24 23 22 21 21 20 19 18 18 18 17 17 17 16 16 16 16 16 16 15 15 15 15 15 15 15 14
26 26 26 27 27 27 26 27 27 27 27 27 27 27 26 25 24 24 23 22 21 20 19 19 18 18 17 17 17 16 16 16 16 15 15 15 15 15 14 14 14 14 14 14
25 25 26 26 26 25 27 27 27 27 27 27 26 26 25 25 24 23 22 22 21 20 19 18 18 17 17 17 17 16 16 16 15 15 15 15 15 15 14 14 14 14 14 14
25 24 25 26 25 26 26 26 26 26 26 26 26 25 24 23 23 23 21 20 20 19 18 18 17 17 17 16 16 16 16 15 15 15 15 15 15 15 14 14 14 14 14 14
24 24 25 25 24 25 26 26 25 25 25 25 24 24 23 22 24 24 20 19 19 18 17 17 17 16 16 16 16 16 16 15 15 15 15 15 15 14 14 14 14 14 14 14
23 23 24 24 24 26 25 25 24 24 24 23 23 23 22 22 23 21 19 18 18 17 17 16 16 16 16 16 15 15 15 15 15 15 15 15 15 14 14 14 14 14 14 14
24 24 24 24 24 24 24 24 24 23 22 22 21 21 21 20 20 19 18 17 17 16 16 16 16 16 15 15 15 15 15 15 15 15 15 15 14 14 14 14 14 13 13 13
24 24 24 24 24 23 22 22 22 21 21 20 20 20 20 19 19 18 17 17 16 16 15 15 15 15 15 15 15 15 15 15 15 15 15 14 14 14 14 14 13 13 13 13
23 21 22 23 23 22 21 21 20 20 20 19 19 19 19 18 18 17 17 16 16 15 15 15 15 15 15 15 15 14 14 14 15 14 14 14 14 14 14 13 13 13 13 13
22 21 22 22 22 21 20 20 19 19 19 19 18 18 18 18 17 17 16 16 15 15 15 15 15 15 15 14 14 14 14 14 14 14 14 14 14 14 13 13 13 13 13 13
21 21 21 22 21 21 20 19 19 18 18 18 18 18 17 17 17 16 16 15 15 15 14 14 14 14 14 14 14 14 14 14 14 14 14 14 14 13 13 13 13 13 13 12
Wind_Speed
7 7 7 6 7 6 5 5 3 1 1 3 4 3 3 5 6 6 6 6 6 6 7 7 7 6 6 6 6 5 5 4 3 3 3 3 3 3 2 3 2 3 3 3
7 8 6 4 5 6 6 6 4 2 2 4 3 3 3 4 5 5 5 6 6 6 7 7 7 6 7 7 6 6 5 5 4 3 3 2 2 3 2 2 2 3 3 4
9 3 2 5 7 7 7 6 4 3 3 5 4 4 5 5 5 5 5 6 6 7 7 7 7 7 7 7 7 6 6 5 5 4 3 3 3 3 3 3 3 3 3 3
7 5 5 6 7 8 6 4 5 6 7 4 5 4 4 5 5 5 6 7 7 7 7 7 7 7 7 7 7 6 6 6 5 5 4 4 4 3 3 3 2 3 3 4
5 5 6 7 6 6 4 2 4 6 7 7 6 6 2 5 4 4 5 5 6 7 7 7 7 6 6 6 6 6 6 6 5 5 4 4 4 4 3 3 3 4 3 4
7 4 5 5 4 4 4 5 6 8 8 8 6 7 3 2 2 2 3 3 5 6 6 6 6 5 5 6 6 6 6 6 6 5 5 5 5 4 4 4 4 4 3 3
8 8 6 4 5 6 8 8 6 7 7 6 3 6 2 2 0 0 1 1 3 5 6 6 7 6 6 5 6 6 6 6 6 6 6 6 6 6 6 5 5 5 4 3
9 8 7 6 7 6 9 10 8 7 7 4 5 5 1 3 2 1 1 2 2 4 5 6 7 7 6 6 6 5 5 5 5 5 5 5 5 5 5 5 5 5 4 3
7 6 4 4 5 7 8 9 9 10 10 9 5 3 3 3 2 1 2 2 2 3 3 4 5 6 6 6 6 5 5 4 4 5 5 5 5 5 5 4 5 4 3 3
7 7 6 5 6 5 7 6 7 9 8 9 7 7 4 3 2 2 2 2 2 3 3 3 4 5 5 6 6 5 5 4 4 3 4 3 4 5 5 4 3 3 3 3
9 9 7 7 7 6 6 7 7 8 9 10 9 3 2 1 2 2 2 2 2 2 2 3 3 4 4 5 5 5 5 4 4 3 3 3 4 4 4 4 4 4 3 3
7 8 8 8 5 5 7 7 8 8 8 9 10 4 4 1 2 2 2 2 2 2 2 2 2 3 3 4 5 5 5 5 4 3 3 3 4 4 4 4 4 4 4 4
5 7 9 9 9 7 7 7 8 9 9 9 11 4 4 2 2 2 2 1 1 1 2 2 2 2 2 2 3 4 5 4 4 4 4 4 3 3 4 4 4 4 3 3
6 9 10 10 5 4 7 8 9 11 10 10 10 8 3 3 3 3 2 2 1 1 1 1 1 1 1 2 2 3 4 4 4 4 4 4 4 3 3 3 3 4 3 4
6 10 10 9 8 7 8 8 9 11 11 12 9 8 5 4 4 4 3 3 2 2 2 1 1 1 2 2 2 3 3 4 4 4 4 4 3 3 3 3 3 3 4 4
6 8 9 11 10 10 11 10 11 11 11 12 11 9 4 3 3 3 4 3 3 3 2 2 1 1 2 2 3 3 3 4 4 4 4 3 2 2 2 2 2 2 3 3
7 8 10 11 10 11 13 11 10 10 9 10 11 8 4 4 4 5 5 5 4 3 2 2 2 2 2 2 3 3 3 3 4 4 3 3 2 2 3 3 2 3 3 3
7 9 8 9 9 14 7 4 7 10 10 9 8 7 6 5 5 5 4 4 3 2 2 2 2 2 2 2 2 2 2 3 3 3 3 3 3 3 4 3 2 3 3 3
8 9 8 9 12 12 8 5 6 9 11 7 7 6 4 3 4 5 3 3 3 3 2 2 2 1 1 2 2 2 3 3 4 4 3 3 4 4 4 3 3 3 3 3
8 9 10 10 13 13 6 3 4 8 10 4 5 6 5 5 7 4 2 2 2 2 2 1 1 1 1 1 2 2 3 2 3 3 3 3 3 4 4 4 3 2 3 3
9 9 12 13 14 10 2 2 4 8 5 3 4 5 7 7 6 2 1 2 2 2 1 1 1 1 1 2 2 2 2 2 2 2 2 2 3 4 4 3 2 2 3 3
9 9 10 11 13 9 2 3 4 5 5 4 5 5 5 4 2 1 1 2 2 2 2 1 1 2 2 2 3 2 2 2 2 2 2 2 3 3 2 2 2 2 3 3
8 7 7 8 6 1 0 3 3 5 6 5 5 5 5 5 4 3 3 3 3 3 3 2 2 2 2 2 2 3 2 2 2 2 2 2 3 2 2 2 2 3 3 3
6 3 6 7 5 2 3 4 4 5 5 6 5 5 5 6 5 5 4 4 4 4 4 3 3 3 3 3 3 3 3 3 3 3 3 3 3 2 2 2 2 2 2 3
5 5 6 8 5 4 4 4 5 5 5 5 5 5 6 6 6 5 4 4 4 4 4 4 4 4 4 4 3 3 3 3 4 4 3 3 3 2 2 2 2 3 2 2
6 7 8 7 5 6 7 6 6 5 5 5 5 6 6 6 6 5 5 5 5 5 5 5 5 5 5 4 4 3 3 4 4 4 4 4 3 3 2 2 2 1 2 2
Wind_Direction
203 225 226 225 241 279 282 284 285 277 181 243 245 232 193 186 197 194 189 186 186 190 183 181 184 182 180 178 179 184 190 182 184 187 197 199 203 212 209 206 204 224 246 256
213 231 246 245 237 243 252 261 244 209 212 257 246 239 197 191 203 204 198 193 194 190 182 183 187 185 185 181 183 185 190 189 195 194 206 212 215 222 219 231 210 235 245 254
234 251 210 226 224 237 246 253 253 251 240 224 247 215 184 185 195 203 205 201 200 199 193 187 191 193 191 189 190 191 192 190 197 200 203 197 201 225 221 221 221 237 247 252
238 242 224 230 234 245 253 244 239 232 243 242 252 273 195 189 193 204 206 205 207 201 198 194 194 196 197 195 190 190 188 190 193 200 210 210 218 232 240 243 236 229 234 248
223 215 227 243 253 255 266 230 225 240 258 264 242 269 210 184 208 206 200 206 208 204 199 195 195 193 196 192 188 186 185 189 190 198 204 217 229 238 242 243 237 247 242 249
240 224 247 253 248 225 197 207 217 229 246 253 252 261 261 192 224 202 174 188 199 200 193 191 188 180 183 184 185 182 182 190 191 197 205 216 227 240 248 244 241 240 240 242
221 212 208 215 211 194 220 238 247 240 237 248 201 249 268 79 77 250 188 169 183 184 186 184 180 175 179 183 185 183 182 192 196 201 209 215 226 232 236 243 237 249 250 246
234 225 203 214 234 228 229 249 266 278 278 264 197 243 160 110 97 95 108 116 129 155 171 177 179 179 184 187 186 183 183 191 200 208 217 222 227 235 238 237 249 244 253 256
249 233 181 210 238 245 238 245 268 274 273 273 250 230 204 164 176 153 112 112 124 143 158 174 179 183 187 188 189 188 184 192 205 213 215 220 227 239 243 238 240 247 252 251
254 252 218 201 209 226 259 257 252 257 267 270 256 245 246 182 191 165 142 125 121 133 149 163 176 182 187 187 184 183 183 191 199 210 219 210 220 226 235 241 243 253 257 264
248 247 230 215 230 234 219 230 248 257 266 273 274 270 59 160 181 193 172 147 137 143 145 149 159 174 185 182 177 179 182 188 191 203 218 222 216 220 223 229 238 241 247 251
232 247 248 234 218 253 242 243 241 253 255 262 276 276 96 130 176 176 162 145 142 144 139 130 138 160 174 177 178 181 187 195 201 200 202 215 221 221 225 227 232 233 237 244
220 241 244 225 203 205 228 237 247 259 258 259 265 253 119 129 165 180 186 171 167 166 145 129 135 153 171 180 186 192 194 200 203 201 203 211 220 224 233 237 236 230 232 241
237 245 253 263 269 239 229 235 242 252 257 260 264 269 250 248 239 230 226 219 213 193 175 176 154 151 179 190 197 210 211 204 203 201 204 211 223 228 235 239 239 236 235 239
236 242 244 255 261 255 253 251 243 248 263 272 279 276 275 268 256 238 220 214 225 215 217 227 242 217 205 201 205 217 220 210 206 202 204 213 225 230 235 234 235 234 232 234
233 245 243 243 245 248 252 252 249 250 257 263 268 271 280 267 244 229 215 213 226 230 238 249 265 260 228 207 211 216 216 209 206 207 205 202 217 234 240 242 241 242 244 243
224 233 244 247 241 247 245 245 249 251 251 259 267 276 271 251 239 242 229 224 232 234 244 251 255 256 257 234 215 221 216 210 203 201 199 192 200 235 242 242 244 249 248 245
228 234 241 250 241 247 251 242 254 260 259 260 270 274 270 265 255 248 228 231 239 242 248 253 253 259 258 264 217 207 200 198 195 190 193 203 205 235 247 237 236 248 251 256
228 227 241 245 246 250 240 231 242 254 261 259 263 265 264 268 253 234 223 247 250 243 245 251 256 263 263 264 218 188 195 197 197 195 199 204 209 225 241 237 231 245 250 254
209 223 239 244 254 255 252 221 240 252 251 248 253 247 241 242 257 256 232 240 240 241 237 238 253 271 232 234 206 197 203 210 215 213 212 209 206 219 231 235 233 239 245 250
206 217 234 245 252 254 251 154 223 244 280 323 266 244 235 248 278 299 228 213 212 218 223 238 251 259 244 220 204 208 214 228 244 229 210 196 202 209 215 222 230 239 250 258
229 228 230 242 249 247 129 188 247 304 332 307 280 256 251 264 261 226 197 202 205 211 214 233 258 274 254 219 205 211 224 238 233 213 203 200 215 224 205 206 225 239 249 247
236 254 252 246 256 341 201 274 306 315 305 297 281 268 250 243 239 229 222 221 221 223 222 228 238 251 240 221 211 225 238 239 227 221 217 214 219 217 214 218 228 228 229 249
224 265 256 253 241 251 261 281 288 292 289 288 279 265 247 245 239 233 230 226 225 229 226 226 230 232 229 227 228 235 229 224 217 221 228 219 216 210 210 240 243 250 251 258
258 232 242 248 256 258 253 286 293 290 290 287 275 261 251 241 236 232 232 229 226 228 227 229 235 237 232 233 236 235 226 222 225 226 231 234 228 220 224 233 254 248 258 264
242 245 249 259 263 271 276 286 291 280 276 275 271 265 253 240 233 231 231 230 227 227 228 230 234 237 227 227 232 232 227 227 226 227 232 238 235 229 233 230 239 191 239 193
Height
1501 1500 1498 1496 1495 1497 1498 1500 1502 1501 1500 1502 1503 1503 1504 1507 1509 1511 1513 1515 1517 1519 1522 1523 1524 1525 1526 1526 1527 1528 1529 1529 1530 1531 1532 1533 1534 1534 1535 1535 1535 1535 1535 1536
1498 1497 1493 1494 1495 1497 1499 1501 1500 1500 1500 1501 1501 1501 1500 1504 1506 1509 1511 1513 1515 1517 1519 1521 1522 1523 1524 1524 1525 1526 1527 1528 1529 1529 1530 1531 1532 1533 1533 1534 1533 1534 1534 1534
1496 1492 1493 1495 1496 1498 1497 1498 1498 1501 1500 1499 1500 1501 1499 1500 1504 1507 1509 1511 1513 1514 1516 1519 1520 1521 1522 1523 1524 1525 1525 1526 1527 1528 1529 1530 1531 1531 1532 1532 1532 1532 1532 1532
1492 1491 1493 1494 1494 1494 1497 1493 1496 1499 1501 1498 1500 1504 1497 1496 1499 1502 1505 1508 1509 1512 1514 1516 1517 1519 1520 1521 1522 1523 1523 1524 1525 1526 1528 1528 1529 1530 1530 1530 1531 1530 1530 1530
1491 1491 1493 1494 1492 1492 1493 1492 1494 1496 1498 1498 1496 1501 1494 1492 1496 1498 1502 1505 1507 1510 1512 1514 1515 1516 1518 1519 1520 1521 1522 1522 1523 1524 1525 1526 1527 1528 1528 1528 1528 1528 1529 1528
1488 1490 1491 1490 1491 1492 1493 1494 1495 1494 1494 1506 1498 1501 1498 1490 1493 1495 1498 1502 1505 1508 1510 1512 1513 1514 1516 1517 1518 1519 1519 1520 1521 1522 1522 1523 1524 1525 1525 1526 1526 1526 1527 1527
1490 1488 1489 1490 1492 1493 1492 1497 1503 1505 1504 1501 1494 1498 1496 1490 1492 1495 1498 1501 1504 1506 1508 1510 1511 1512 1513 1514 1516 1516 1517 1518 1519 1519 1520 1520 1521 1522 1522 1523 1524 1524 1525 1525
1492 1492 1486 1487 1489 1490 1490 1491 1504 1512 1506 1494 1494 1495 1490 1490 1494 1497 1499 1501 1503 1504 1506 1508 1509 1510 1511 1512 1513 1514 1515 1516 1516 1517 1517 1518 1518 1520 1521 1521 1521 1522 1522 1522
1487 1489 1484 1487 1487 1486 1488 1487 1483 1490 1493 1496 1490 1488 1488 1490 1494 1496 1498 1500 1502 1503 1504 1506 1507 1508 1509 1510 1511 1512 1513 1513 1514 1515 1515 1515 1516 1517 1518 1518 1519 1519 1519 1519
1483 1491 1484 1485 1486 1487 1485 1483 1486 1490 1504 1505 1494 1490 1489 1490 1492 1495 1497 1499 1501 1502 1503 1505 1506 1507 1508 1509 1510 1510 1511 1511 1512 1512 1513 1514 1513 1514 1515 1516 1516 1516 1516 1516
1482 1488 1486 1485 1486 1485 1488 1488 1488 1487 1488 1499 1500 1492 1483 1488 1491 1493 1496 1499 1500 1501 1502 1503 1504 1505 1506 1507 1508 1508 1509 1510 1510 1510 1510 1511 1511 1512 1512 1512 1513 1513 1513 1513
1483 1483 1486 1483 1481 1482 1482 1484 1486 1493 1494 1491 1493 1493 1483 1487 1489 1492 1495 1498 1500 1501 1502 1503 1503 1504 1505 1505 1506 1507 1507 1508 1508 1508 1508 1509 1509 1510 1510 1510 1510 1510 1510 1511
1483 1485 1492 1488 1487 1485 1484 1483 1482 1482 1485 1488 1491 1491 1484 1487 1490 1492 1494 1497 1499 1500 1501 1502 1502 1503 1503 1504 1504 1505 1505 1506 1506 1506 1506 1506 1507 1507 1507 1507 1507 1507 1507 1507
1485 1481 1486 1491 1484 1479 1484 1484 1483 1484 1484 1485 1485 1484 1483 1485 1488 1491 1494 1496 1497 1499 1500 1500 1501 1501 1501 1502 1502 1503 1503 1503 1503 1503 1504 1504 1504 1504 1505 1505 1505 1505 1504 1504
1483 1482 1481 1479 1477 1478 1480 1481 1482 1484 1482 1482 1481 1481 1482 1483 1487 1490 1493 1495 1496 1497 1498 1499 1499 1499 1499 1500 1499 1500 1500 1501 1501 1501 1501 1502 1502 1502 1502 1503 1502 1502 1502 1502
1482 1483 1482 1483 1479 1479 1481 1480 1479 1480 1480 1480 1480 1480 1480 1484 1487 1489 1491 1493 1494 1495 1497 1497 1498 1498 1497 1497 1497 1497 1498 1498 1498 1498 1499 1499 1500 1499 1500 1500 1500 1500 1499 1499
1480 1483 1485 1483 1479 1480 1483 1477 1477 1477 1476 1478 1480 1479 1480 1483 1486 1488 1489 1491 1492 1494 1495 1496 1496 1495 1495 1495 1495 1495 1495 1495 1495 1496 1496 1497 1497 1498 1498 1498 1497 1497 1497 1497
1482 1483 1481 1480 1485 1494 1476 1471 1473 1475 1474 1475 1477 1478 1481 1483 1485 1487 1488 1489 1491 1492 1493 1493 1493 1493 1493 1493 1493 1492 1493 1493 1493 1494 1494 1494 1494 1495 1495 1494 1494 1495 1495 1494
1479 1482 1481 1480 1482 1479 1472 1472 1473 1476 1475 1474 1476 1479 1481 1483 1484 1484 1486 1488 1489 1490 1491 1491 1492 1491 1491 1491 1490 1490 1491 1491 1492 1492 1492 1492 1491 1492 1492 1492 1491 1492 1492 1492
1479 1480 1480 1479 1484 1483 1472 1470 1473 1475 1476 1474 1476 1479 1481 1482 1480 1480 1484 1486 1487 1488 1489 1489 1489 1489 1489 1489 1489 1489 1489 1489 1489 1490 1489 1489 1489 1489 1489 1489 1489 1489 1489 1489
1478 1480 1479 1477 1478 1469 1468 1471 1473 1479 1476 1475 1476 1477 1479 1479 1480 1481 1483 1484 1485 1486 1486 1486 1486 1487 1487 1487 1487 1487 1487 1487 1487 1487 1487 1487 1487 1487 1487 1487 1487 1487 1486 1486
1472 1472 1476 1475 1477 1474 1470 1472 1474 1475 1475 1476 1476 1477 1478 1479 1480 1480 1481 1482 1483 1484 1484 1484 1484 1484 1484 1485 1485 1485 1485 1485 1485 1485 1485 1485 1485 1485 1485 1485 1484 1484 1484 1483
1469 1468 1466 1468 1470 1471 1472 1473 1475 1476 1476 1476 1475 1476 1477 1477 1478 1478 1479 1480 1481 1481 1481 1482 1482 1481 1482 1482 1483 1483 1483 1483 1483 1483 1483 1483 1483 1483 1482 1482 1482 1481 1481 1481
1468 1472 1470 1469 1467 1471 1472 1473 1474 1475 1474 1474 1474 1474 1475 1475 1475 1476 1476 1477 1478 1478 1479 1479 1479 1479 1479 1480 1480 1480 1480 1481 1481 1481 1481 1481 1481 1480 1480 1479 1479 1479 1478 1478
1469 1471 1469 1469 1469 1471 1471 1472 1472 1472 1472 1472 1472 1472 1472 1473 1473 1473 1474 1474 1474 1475 1475 1476 1476 1476 1476 1477 1477 1478 1478 1478 1478 1479 1479 1479 1479 1478 1477 1477 1477 1476 1476 1475
1470 1470 1469 1466 1469 1469 1469 1470 1470 1470 1469 1470 1469 1469 1470 1470 1470 1470 1470 1471 1471 1472 1472 1472 1473 1473 1473 1474 1474 1475 1475 1476 1476 1477 1477 1477 1477 1476 1475 1474 1474 1473 1473 1471